Change the Weather History Date:

Saturday, October 26, 2013

  Actual Average Record
Temperature  
Mean Temperature 54 °F -  
Max Temperature 64 °F - - ()
Min Temperature 43 °F - - ()
Degree Days  
Heating Degree Days 12    
Growing Degree Days 4 (Base 50)    
Moisture  
Dew Point 47 °F    
Average Humidity 75    
Maximum Humidity 92    
Minimum Humidity 64    
Precipitation  
Precipitation 0.00 in - - ()
Sea Level Pressure  
Sea Level Pressure 30.15 in    
Wind  
Wind Speed 6 mph (WSW)    
Max Wind Speed 17 mph    
Max Gust Speed 21 mph    
Visibility 10 miles    
Events      
T = Trace of Precipitation, MM = Missing Value Source: NWS Daily Summary

Daily Weather History Graph

Daily Weather History Graph

Search for Another Location

Airport or City:

Trip Planner

Search our weather history database for the weather conditions in past years. The results will help you decide how hot, cold, wet, or windy it might be!

Date:

Astronomy

Oct. 26, 2013 Rise Set
Actual Time 7:34 AM CDT 6:27 PM CDT
Civil Twilight 7:08 AM CDT 6:53 PM CDT
Nautical Twilight 6:38 AM CDT 7:23 PM CDT
Astronomical Twilight 6:08 AM CDT 7:53 PM CDT
Moon No Moon Rise 1:49 PM CDT (10/26)
Length of Visible Light 11h 45m
Length of Day
10h 52m
Waning Gibbous, 53% of the Moon is Illuminated
Oct 26
Waning Gibbous
Oct 26
Last Quarter
Nov 3
New
Nov 9
First Quarter
Nov 17
Full

Hourly Weather History & Observations

Time (CDT) Temp. Windchill Dew Point Humidity Pressure Visibility Wind Dir Wind Speed Gust Speed Precip Events Conditions
12:53 AM 43.0 °F 39.5 °F 33.1 °F 68% 30.21 in 10.0 mi SSW 5.8 mph - N/A   Clear
1:53 AM 44.1 °F 41.5 °F 34.0 °F 68% 30.21 in 10.0 mi SSW 4.6 mph - N/A   Clear
2:53 AM 44.1 °F 40.8 °F 35.1 °F 71% 30.20 in 10.0 mi SSW 5.8 mph - N/A   Clear
3:53 AM 44.1 °F 41.5 °F 36.0 °F 73% 30.19 in 10.0 mi South 4.6 mph - N/A   Clear
4:53 AM 44.1 °F 39.5 °F 36.0 °F 73% 30.19 in 10.0 mi SSW 8.1 mph - N/A   Clear
5:53 AM 43.0 °F 39.5 °F 37.0 °F 80% 30.19 in 10.0 mi SSW 5.8 mph - N/A   Clear
6:53 AM 43.0 °F 40.3 °F 37.9 °F 82% 30.19 in 10.0 mi SSW 4.6 mph - N/A   Partly Cloudy
7:53 AM 45.0 °F 41.8 °F 39.0 °F 80% 30.19 in 10.0 mi SSW 5.8 mph - N/A   Overcast
8:53 AM 48.9 °F - 39.9 °F 71% 30.19 in 10.0 mi SSW 8.1 mph - N/A   Mostly Cloudy
9:53 AM 53.1 °F - 42.1 °F 66% 30.18 in 10.0 mi SW 11.5 mph - N/A   Clear
10:53 AM 57.9 °F - 46.9 °F 67% 30.17 in 10.0 mi SW 17.3 mph 20.7 mph N/A   Partly Cloudy
11:53 AM 57.0 °F - 46.9 °F 69% 30.18 in 10.0 mi WSW 11.5 mph - N/A   Overcast
12:53 PM 60.1 °F - 50.0 °F 69% 30.15 in 10.0 mi WSW 11.5 mph 19.6 mph N/A   Mostly Cloudy
1:53 PM 64.0 °F - 52.0 °F 65% 30.12 in 10.0 mi West 8.1 mph - N/A   Mostly Cloudy
2:12 PM 64.4 °F - 51.8 °F 64% 30.12 in 10.0 mi WNW 9.2 mph - N/A   Mostly Cloudy
2:27 PM 62.6 °F - 51.8 °F 68% 30.12 in 10.0 mi NNW 6.9 mph - N/A   Overcast
2:53 PM 61.0 °F - 52.0 °F 72% 30.12 in 10.0 mi NW 3.5 mph - N/A   Overcast
3:53 PM 62.1 °F - 53.1 °F 72% 30.12 in 10.0 mi WNW 8.1 mph - N/A   Overcast
4:07 PM 62.6 °F - 53.6 °F 72% 30.11 in 10.0 mi WNW 8.1 mph - N/A   Mostly Cloudy
4:53 PM 61.0 °F - 53.1 °F 75% 30.11 in 10.0 mi WSW 5.8 mph - N/A   Overcast
5:53 PM 60.1 °F - 53.1 °F 78% 30.11 in 10.0 mi Calm Calm - N/A   Overcast
6:10 PM 59.0 °F - 53.6 °F 82% 30.12 in 10.0 mi Calm Calm - N/A   Overcast
6:53 PM 59.0 °F - 53.1 °F 81% 30.12 in 10.0 mi Calm Calm - N/A   Overcast
7:53 PM 57.9 °F - 53.1 °F 84% 30.11 in 10.0 mi Calm Calm - N/A   Overcast
8:53 PM 57.0 °F - 51.1 °F 81% 30.12 in 10.0 mi North 3.5 mph - N/A   Overcast
9:53 PM 55.9 °F - 52.0 °F 87% 30.12 in 10.0 mi Calm Calm - N/A   Overcast
10:26 PM 55.4 °F - 51.8 °F 88% 30.13 in 10.0 mi Calm Calm - N/A   Overcast
10:53 PM 54.0 °F - 51.1 °F 90% 30.12 in 10.0 mi West 3.5 mph - N/A   Overcast
11:53 PM 51.1 °F - 48.9 °F 92% 30.12 in 9.0 mi Calm Calm - N/A   Clear